UKV5035 RJER-RJCC

Flight info

Callsign UKV5035
Flight time 0h 35m
Altitude 28000
Route RSE LEDAX A204 YOROI Y10 RUMOI V1 CHE
Aircraft A321/M-SDE3FGHIRWY/LB1

Departure

Time 2026-05-06 12:48
Airport Rishiri Airport (RJER)

Arrival

Time 2026-05-06 13:23
Airport New Chitose Airport (RJCC)
Time Latitude Longitude Altitude Speed Heading
2026-05-06 12:38 45.24366 141.18495 108 ft 0 kts 85°
2026-05-06 12:41 45.24366 141.18496 105 ft 0 kts 94°
2026-05-06 12:42 45.24359 141.18498 102 ft 1 kts 166°
2026-05-06 12:42 45.24351 141.18490 108 ft 3 kts 205°
2026-05-06 12:42 45.24325 141.18474 105 ft 5 kts 204°
2026-05-06 12:42 45.24285 141.18483 103 ft 7 kts 148°
2026-05-06 12:43 45.24238 141.18526 103 ft 9 kts 147°
2026-05-06 12:43 45.24209 141.18552 104 ft 0 kts 147°
2026-05-06 12:45 45.24188 141.18572 105 ft 9 kts 146°
2026-05-06 12:45 45.24061 141.18453 103 ft 17 kts 236°
2026-05-06 12:46 45.23992 141.18305 102 ft 19 kts 237°
2026-05-06 12:46 45.23918 141.18144 101 ft 20 kts 237°
2026-05-06 12:46 45.23842 141.17976 101 ft 21 kts 237°
2026-05-06 12:46 45.23766 141.17867 100 ft 7 kts 223°
2026-05-06 12:47 45.23771 141.17845 100 ft 1 kts
2026-05-06 12:47 45.23806 141.17901 100 ft 30 kts 56°
2026-05-06 12:47 45.24115 141.18573 103 ft 128 kts 57°
2026-05-06 12:47 45.24712 141.19924 385 ft 178 kts 59°
2026-05-06 12:48 45.25466 141.21300 1454 ft 179 kts 33°
2026-05-06 12:48 45.26654 141.21901 2331 ft 190 kts
2026-05-06 12:48 45.27975 141.22349 2809 ft 203 kts 10°
2026-05-06 12:48 45.29393 141.23058 3049 ft 229 kts 19°
2026-05-06 12:49 45.30935 141.24027 3395 ft 255 kts 22°
2026-05-06 12:49 45.32614 141.25140 3844 ft 276 kts 22°
2026-05-06 12:49 45.34411 141.26078 4570 ft 281 kts
2026-05-06 12:49 45.36362 141.26033 5377 ft 276 kts 340°
2026-05-06 12:50 45.38039 141.24957 6208 ft 265 kts 316°
2026-05-06 12:50 45.39286 141.23100 7037 ft 255 kts 296°
2026-05-06 12:50 45.39964 141.20819 7872 ft 248 kts 277°
2026-05-06 12:50 45.40053 141.18390 8719 ft 246 kts 261°
2026-05-06 12:51 45.39566 141.16071 9577 ft 247 kts 244°
2026-05-06 12:51 45.38535 141.14093 10373 ft 253 kts 227°
2026-05-06 12:51 45.37042 141.12709 11189 ft 263 kts 209°
2026-05-06 12:51 45.35210 141.12157 12005 ft 279 kts 189°
2026-05-06 12:52 45.33235 141.12679 12786 ft 302 kts 168°
2026-05-06 12:52 45.31239 141.13954 13100 ft 327 kts 165°
2026-05-06 12:52 45.29111 141.15386 13259 ft 350 kts 163°
2026-05-06 12:52 45.26863 141.16968 13556 ft 370 kts 159°
2026-05-06 12:53 45.24762 141.19262 14100 ft 394 kts 142°
2026-05-06 12:53 45.23083 141.22437 14686 ft 412 kts 126°
2026-05-06 12:53 45.21694 141.26021 15302 ft 416 kts 124°
2026-05-06 12:53 45.20289 141.29625 15950 ft 420 kts 124°
2026-05-06 12:54 45.18859 141.33250 16584 ft 423 kts 124°
2026-05-06 12:54 45.17414 141.36897 17243 ft 426 kts 124°
2026-05-06 12:54 45.15955 141.40577 17895 ft 430 kts 124°
2026-05-06 12:54 45.14488 141.44284 18486 ft 433 kts 124°
2026-05-06 12:55 45.13008 141.48022 19059 ft 437 kts 124°
2026-05-06 12:55 45.11510 141.51796 19579 ft 441 kts 124°
2026-05-06 12:55 45.09999 141.55595 20111 ft 445 kts 124°
2026-05-06 12:55 45.08477 141.59428 20675 ft 448 kts 124°
2026-05-06 12:56 45.06961 141.63243 21206 ft 451 kts 124°
2026-05-06 12:56 45.05405 141.67109 21743 ft 453 kts 127°
2026-05-06 12:56 45.03517 141.70639 22237 ft 447 kts 139°
2026-05-06 12:56 45.01221 141.73554 22729 ft 441 kts 151°
2026-05-06 12:57 44.98620 141.75771 23221 ft 433 kts 162°
2026-05-06 12:57 44.95826 141.77259 23647 ft 426 kts 172°
2026-05-06 12:57 44.92932 141.78020 24045 ft 420 kts 182°
2026-05-06 12:57 44.90030 141.78088 24451 ft 416 kts 189°
2026-05-06 12:58 44.87128 141.77956 24861 ft 419 kts 189°
2026-05-06 12:58 44.84207 141.77823 25268 ft 421 kts 189°
2026-05-06 12:58 44.81269 141.77686 25671 ft 424 kts 189°
2026-05-06 12:58 44.78311 141.77549 26071 ft 427 kts 189°
2026-05-06 12:59 44.75332 141.77416 26472 ft 429 kts 189°
2026-05-06 12:59 44.72331 141.77288 26863 ft 432 kts 189°
2026-05-06 12:59 44.69316 141.77164 27242 ft 435 kts 189°
2026-05-06 12:59 44.66282 141.77037 27614 ft 437 kts 189°
2026-05-06 13:00 44.63236 141.76905 27886 ft 439 kts 189°
2026-05-06 13:00 44.60189 141.76772 27939 ft 434 kts 189°
2026-05-06 13:00 44.57223 141.76644 27939 ft 430 kts 189°
2026-05-06 13:00 44.54235 141.76512 27940 ft 429 kts 189°
2026-05-06 13:01 44.51250 141.76380 27936 ft 429 kts 189°
2026-05-06 13:01 44.48267 141.76251 27935 ft 429 kts 189°
2026-05-06 13:01 44.45281 141.76121 27938 ft 430 kts 188°
2026-05-06 13:01 44.42276 141.75990 27942 ft 431 kts 188°
2026-05-06 13:02 44.39279 141.75861 27936 ft 431 kts 188°
2026-05-06 13:02 44.36283 141.75732 27946 ft 431 kts 188°
2026-05-06 13:02 44.33285 141.75604 27944 ft 431 kts 189°
2026-05-06 13:02 44.30289 141.75475 27944 ft 431 kts 189°
2026-05-06 13:03 44.27297 141.75346 27950 ft 431 kts 189°
2026-05-06 13:03 44.24299 141.75218 27714 ft 430 kts 188°
2026-05-06 13:03 44.21316 141.75095 27087 ft 426 kts 188°
2026-05-06 13:03 44.18366 141.74975 26512 ft 422 kts 188°
2026-05-06 13:04 44.15442 141.74853 25912 ft 419 kts 188°
2026-05-06 13:04 44.12541 141.74730 25317 ft 415 kts 188°
2026-05-06 13:04 44.09662 141.74604 24741 ft 412 kts 188°
2026-05-06 13:04 44.06810 141.74478 24166 ft 409 kts 188°
2026-05-06 13:05 44.03975 141.74356 23578 ft 406 kts 188°
2026-05-06 13:05 44.01161 141.74236 22939 ft 402 kts 188°
2026-05-06 13:05 43.98423 141.74123 22376 ft 397 kts 188°
2026-05-06 13:05 43.95676 141.74010 21847 ft 392 kts 188°
2026-05-06 13:06 43.92961 141.73894 21323 ft 388 kts 188°
2026-05-06 13:06 43.90267 141.73775 20804 ft 385 kts 188°
2026-05-06 13:06 43.87598 141.73660 20314 ft 382 kts 188°
2026-05-06 13:06 43.84949 141.73545 19824 ft 379 kts 188°
2026-05-06 13:07 43.82321 141.73433 19338 ft 377 kts 188°
2026-05-06 13:07 43.79707 141.73323 18873 ft 373 kts 188°
2026-05-06 13:07 43.77116 141.73215 18393 ft 370 kts 188°
2026-05-06 13:07 43.74552 141.73107 17860 ft 366 kts 188°
2026-05-06 13:08 43.72019 141.73002 17336 ft 363 kts 188°
2026-05-06 13:08 43.69508 141.72898 16815 ft 359 kts 188°
2026-05-06 13:08 43.67020 141.72803 16273 ft 355 kts 188°
2026-05-06 13:08 43.64587 141.72719 15742 ft 352 kts 188°
2026-05-06 13:09 43.62146 141.72637 15188 ft 350 kts 188°
2026-05-06 13:09 43.59720 141.72555 14643 ft 348 kts 188°
2026-05-06 13:09 43.57303 141.72472 14088 ft 347 kts 188°
2026-05-06 13:09 43.54894 141.72386 13496 ft 344 kts 187°
2026-05-06 13:10 43.52513 141.72303 12931 ft 341 kts 188°
2026-05-06 13:10 43.50152 141.72220 12369 ft 338 kts 188°
2026-05-06 13:10 43.47807 141.72139 11820 ft 336 kts 187°
2026-05-06 13:10 43.45475 141.72058 11258 ft 335 kts 187°
2026-05-06 13:11 43.43154 141.71977 10741 ft 333 kts 187°
2026-05-06 13:11 43.40890 141.71903 10600 ft 317 kts 186°
2026-05-06 13:11 43.38729 141.71833 10481 ft 304 kts 187°
2026-05-06 13:11 43.36657 141.71766 10360 ft 291 kts 187°
2026-05-06 13:12 43.34666 141.71685 10153 ft 283 kts 188°
2026-05-06 13:12 43.32714 141.71585 9932 ft 278 kts 188°
2026-05-06 13:12 43.30784 141.71472 9811 ft 278 kts 188°
2026-05-06 13:12 43.28856 141.71355 9671 ft 277 kts 188°
2026-05-06 13:13 43.26924 141.71236 9272 ft 279 kts 189°
2026-05-06 13:13 43.25017 141.71122 8864 ft 278 kts 189°
2026-05-06 13:13 43.23088 141.71010 8518 ft 276 kts 188°
2026-05-06 13:13 43.21182 141.70908 8150 ft 274 kts 189°
2026-05-06 13:14 43.19278 141.70808 7772 ft 273 kts 189°
2026-05-06 13:14 43.17390 141.70705 7398 ft 271 kts 189°
2026-05-06 13:14 43.15517 141.70553 7019 ft 266 kts 195°
2026-05-06 13:14 43.14093 141.70101 6702 ft 260 kts 201°
2026-05-06 13:15 43.12358 141.69481 5950 ft 257 kts 201°
2026-05-06 13:15 43.10633 141.68861 5158 ft 255 kts 200°
2026-05-06 13:15 43.08950 141.68261 4781 ft 238 kts 200°
2026-05-06 13:15 43.07433 141.67730 4723 ft 214 kts 200°
2026-05-06 13:16 43.06052 141.67245 4680 ft 199 kts 201°
2026-05-06 13:16 43.04770 141.66792 4606 ft 180 kts 201°
2026-05-06 13:16 43.03979 141.66513 4548 ft 176 kts 201°
2026-05-06 13:16 43.02834 141.66101 4504 ft 173 kts 201°
2026-05-06 13:17 43.01670 141.65681 4400 ft 173 kts 201°
2026-05-06 13:17 43.00506 141.65267 4311 ft 174 kts 199°
2026-05-06 13:17 42.99279 141.65243 4112 ft 179 kts 182°
2026-05-06 13:17 42.98116 141.65417 3895 ft 178 kts 180°
2026-05-06 13:18 42.96891 141.65624 3665 ft 176 kts 178°
2026-05-06 13:18 42.95679 141.65836 3434 ft 175 kts 178°
2026-05-06 13:18 42.94477 141.66048 3220 ft 173 kts 177°
2026-05-06 13:18 42.93269 141.66261 2979 ft 175 kts 178°
2026-05-06 13:19 42.92060 141.66475 2746 ft 175 kts 177°
2026-05-06 13:19 42.90856 141.66688 2512 ft 174 kts 175°
2026-05-06 13:19 42.89671 141.66898 2280 ft 170 kts 175°
2026-05-06 13:19 42.88551 141.67097 2050 ft 158 kts 175°
2026-05-06 13:20 42.87492 141.67285 1848 ft 150 kts 175°
2026-05-06 13:20 42.86472 141.67465 1649 ft 143 kts 174°
2026-05-06 13:20 42.85509 141.67635 1452 ft 136 kts 174°
2026-05-06 13:20 42.84586 141.67793 1299 ft 133 kts 172°
2026-05-06 13:21 42.83676 141.67956 1096 ft 132 kts 173°
2026-05-06 13:21 42.82768 141.68120 862 ft 131 kts 171°
2026-05-06 13:21 42.81854 141.68285 650 ft 133 kts 169°
2026-05-06 13:21 42.80946 141.68435 522 ft 131 kts 168°
2026-05-06 13:22 42.80054 141.68596 336 ft 129 kts 169°
2026-05-06 13:22 42.79163 141.68750 177 ft 129 kts 168°
2026-05-06 13:22 42.78294 141.68896 107 ft 116 kts 169°
2026-05-06 13:22 42.77582 141.69021 80 ft 83 kts 168°
2026-05-06 13:23 42.77303 141.69064 84 ft 1 kts 190°
2026-05-06 13:23 42.77269 141.69056 82 ft 11 kts 190°
2026-05-06 13:23 42.77160 141.69012 86 ft 16 kts 198°
2026-05-06 13:23 42.77112 141.68900 84 ft 17 kts 314°
2026-05-06 13:24 42.77229 141.68867 84 ft 18 kts 352°
2026-05-06 13:24 42.77361 141.68844 83 ft 20 kts 353°
2026-05-06 13:24 42.77506 141.68820 83 ft 22 kts 356°
2026-05-06 13:24 42.77658 141.68792 80 ft 19 kts 353°
2026-05-06 13:25 42.77795 141.68767 82 ft 21 kts 353°
2026-05-06 13:25 42.77915 141.68747 82 ft 18 kts 352°
2026-05-06 13:25 42.78032 141.68726 81 ft 17 kts 352°
2026-05-06 13:25 42.78153 141.68704 83 ft 16 kts 352°
2026-05-06 13:26 42.78272 141.68683 82 ft 18 kts 352°
2026-05-06 13:26 42.78389 141.68615 83 ft 19 kts 313°
2026-05-06 13:26 42.78437 141.68463 83 ft 17 kts 300°
2026-05-06 13:26 42.78520 141.68350 80 ft 17 kts 349°
2026-05-06 13:27 42.78635 141.68392 82 ft 16 kts 18°
2026-05-06 13:27 42.78724 141.68398 82 ft 9 kts 325°
2026-05-06 13:27 42.78733 141.68321 80 ft 7 kts 273°
2026-05-06 13:27 42.78734 141.68290 79 ft 1 kts 274°
2026-05-06 13:28 42.78734 141.68289 79 ft 0 kts 274°
2026-05-06 13:58 42.78734 141.68291 79 ft 2 kts 274°
2026-05-06 13:59 42.78732 141.68325 75 ft 4 kts 274°
2026-05-06 13:59 42.78731 141.68362 70 ft 3 kts 274°
2026-05-06 13:59 42.78727 141.68392 67 ft 4 kts 303°
2026-05-06 13:59 42.78709 141.68408 73 ft 4 kts 359°
2026-05-06 14:00 42.78693 141.68408 69 ft 1 kts
2026-05-06 14:00 42.78691 141.68408 69 ft 0 kts
2026-05-06 14:03 42.78693 141.68408 69 ft 1 kts
2026-05-06 14:03 42.78731 141.68412 71 ft 8 kts
2026-05-06 14:03 42.78784 141.68444 72 ft 9 kts 45°
2026-05-06 14:03 42.78807 141.68540 84 ft 15 kts 82°
2026-05-06 14:04 42.78822 141.68683 80 ft 16 kts 82°
2026-05-06 14:04 42.78809 141.68807 79 ft 11 kts 123°
2026-05-06 14:04 42.78761 141.68826 81 ft 6 kts 176°
2026-05-06 14:04 42.78755 141.68827 82 ft 0 kts 172°
2026-05-06 14:05 42.78755 141.68828 82 ft 0 kts 172°
2026-05-06 14:05 42.78748 141.68829 84 ft 4 kts 172°
2026-05-06 14:05 42.78527 141.68868 83 ft 69 kts 172°
2026-05-06 14:05 42.77836 141.68989 69 ft 131 kts 173°
2026-05-06 14:06 42.76806 141.69195 390 ft 153 kts 169°
2026-05-06 14:06 42.75763 141.69408 1136 ft 151 kts 172°
2026-05-06 14:06 42.74719 141.69614 1855 ft 153 kts 174°
2026-05-06 14:06 42.73624 141.69829 2225 ft 168 kts 174°
2026-05-06 14:07 42.72391 141.70068 2401 ft 191 kts 174°
2026-05-06 14:07 42.70987 141.70339 2608 ft 217 kts 175°
2026-05-06 14:07 42.69411 141.70645 2961 ft 239 kts 176°
2026-05-06 14:07 42.67722 141.70979 3599 ft 249 kts 178°
2026-05-06 14:08 42.65992 141.71325 4354 ft 254 kts 179°
2026-05-06 14:08 42.64233 141.71533 5070 ft 251 kts 195°
2026-05-06 14:08 42.62716 141.70587 5744 ft 239 kts 229°
2026-05-06 14:08 42.61955 141.68625 6468 ft 239 kts 255°
2026-05-06 14:09 42.61619 141.66396 7171 ft 243 kts 259°
2026-05-06 14:09 42.61366 141.64144 7887 ft 246 kts 260°
2026-05-06 14:09 42.61120 141.61832 8605 ft 249 kts 260°
2026-05-06 14:09 42.60952 141.60302 9085 ft 251 kts 259°
2026-05-06 14:10 42.60680 141.57959 9808 ft 254 kts 259°
2026-05-06 14:10 42.60387 141.55562 10321 ft 265 kts 259°
2026-05-06 14:10 42.60062 141.52993 10484 ft 288 kts 259°
2026-05-06 14:10 42.59701 141.50212 10600 ft 310 kts 259°
2026-05-06 14:11 42.59310 141.47250 10937 ft 323 kts 259°
2026-05-06 14:11 42.58908 141.44214 11515 ft 328 kts 258°
2026-05-06 14:11 42.58498 141.41144 12138 ft 332 kts 258°
2026-05-06 14:11 42.58088 141.38082 12753 ft 336 kts 259°
2026-05-06 14:12 42.57665 141.34935 13380 ft 340 kts 259°
2026-05-06 14:12 42.57236 141.31753 13926 ft 346 kts 259°
2026-05-06 14:12 42.56790 141.28520 14456 ft 350 kts 257°
2026-05-06 14:12 42.56031 141.25372 15038 ft 353 kts 246°
2026-05-06 14:13 42.55034 141.22309 15624 ft 356 kts 246°
2026-05-06 14:13 42.54026 141.19221 16227 ft 359 kts 246°
2026-05-06 14:13 42.53010 141.16117 16820 ft 362 kts 246°
2026-05-06 14:13 42.51984 141.12989 17418 ft 364 kts 246°
2026-05-06 14:14 42.50948 141.09830 17985 ft 368 kts 246°
2026-05-06 14:14 42.49908 141.06655 18530 ft 370 kts 246°
2026-05-06 14:14 42.48864 141.03463 19074 ft 372 kts 246°
2026-05-06 14:14 42.47821 141.00277 19593 ft 374 kts 246°
2026-05-06 14:15 42.46761 140.97044 20120 ft 376 kts 246°
2026-05-06 14:15 42.45693 140.93796 20650 ft 378 kts 246°
2026-05-06 14:15 42.44619 140.90537 21179 ft 380 kts 246°
2026-05-06 14:15 42.43538 140.87262 21682 ft 382 kts 246°
2026-05-06 14:16 42.42449 140.83977 22163 ft 384 kts 246°
2026-05-06 14:16 42.41354 140.80675 22664 ft 385 kts 246°
2026-05-06 14:16 42.40255 140.77362 23125 ft 387 kts 246°
2026-05-06 14:16 42.39147 140.74026 23578 ft 389 kts 246°
2026-05-06 14:17 42.38038 140.70681 23909 ft 392 kts 247°
2026-05-06 14:17 42.36829 140.67373 23999 ft 395 kts 240°
2026-05-06 14:17 42.35158 140.64391 24021 ft 401 kts 229°
2026-05-06 14:17 42.33034 140.61911 24017 ft 407 kts 218°
2026-05-06 14:18 42.30541 140.60059 24016 ft 413 kts 207°
2026-05-06 14:18 42.27819 140.58884 24019 ft 418 kts 200°
2026-05-06 14:18 42.25019 140.57836 24018 ft 418 kts 200°
2026-05-06 14:18 42.22215 140.56787 24018 ft 418 kts 200°
2026-05-06 14:19 42.19408 140.55735 24019 ft 419 kts 200°
2026-05-06 14:19 42.16595 140.54676 24021 ft 419 kts 200°
2026-05-06 14:19 42.13790 140.53621 24021 ft 419 kts 200°
2026-05-06 14:19 42.10979 140.52565 24016 ft 419 kts 200°
2026-05-06 14:20 42.08167 140.51511 24023 ft 419 kts 200°
2026-05-06 14:20 42.05355 140.50458 24024 ft 419 kts 200°
2026-05-06 14:20 42.02549 140.49404 24025 ft 419 kts 200°
2026-05-06 14:20 41.99742 140.48348 24015 ft 419 kts 200°
2026-05-06 14:21 41.96934 140.47296 24011 ft 419 kts 200°
2026-05-06 14:21 41.94122 140.46247 24008 ft 420 kts 200°
2026-05-06 14:21 41.91306 140.45198 24010 ft 420 kts 200°
2026-05-06 14:21 41.88491 140.44149 24010 ft 420 kts 200°
2026-05-06 14:22 41.85671 140.43100 24013 ft 421 kts 200°
2026-05-06 14:22 41.82850 140.42048 24015 ft 421 kts 200°
2026-05-06 14:22 41.80030 140.40997 24022 ft 421 kts 200°
2026-05-06 14:22 41.77210 140.39949 24015 ft 421 kts 200°
2026-05-06 14:23 41.74382 140.38899 24017 ft 421 kts 200°
2026-05-06 14:23 41.71563 140.37854 24019 ft 421 kts 200°
2026-05-06 14:23 41.68740 140.36807 24019 ft 420 kts 200°
2026-05-06 14:23 41.65922 140.35763 24017 ft 420 kts 200°
2026-05-06 14:24 41.63105 140.34719 24024 ft 420 kts 200°
2026-05-06 14:24 41.60266 140.33767 24011 ft 423 kts 194°
2026-05-06 14:24 41.57320 140.33385 24016 ft 429 kts 185°
2026-05-06 14:24 41.54321 140.33601 24013 ft 433 kts 180°
2026-05-06 14:25 41.51352 140.33928 24013 ft 433 kts 180°
2026-05-06 14:25 41.48347 140.34254 24014 ft 433 kts 180°
2026-05-06 14:25 41.45343 140.34578 24016 ft 433 kts 180°
2026-05-06 14:25 41.42339 140.34898 24024 ft 433 kts 180°
2026-05-06 14:26 41.39325 140.35216 24020 ft 434 kts 180°
2026-05-06 14:26 41.36314 140.35533 24023 ft 434 kts 180°
2026-05-06 14:26 41.33299 140.35854 24025 ft 434 kts 180°
2026-05-06 14:26 41.30290 140.36176 24026 ft 434 kts 180°
2026-05-06 14:27 41.27278 140.36495 24028 ft 434 kts 180°
2026-05-06 14:27 41.24268 140.36811 24029 ft 434 kts 180°
2026-05-06 14:27 41.21257 140.37125 24031 ft 434 kts 180°
2026-05-06 14:27 41.18242 140.37441 24020 ft 434 kts 180°
2026-05-06 14:28 41.15231 140.37759 24017 ft 434 kts 180°
2026-05-06 14:28 41.12220 140.38077 24020 ft 434 kts 180°
2026-05-06 14:28 41.09201 140.38391 24031 ft 435 kts 180°
2026-05-06 14:28 41.06222 140.38701 24038 ft 435 kts 180°
2026-05-06 14:29 41.03204 140.39015 24043 ft 435 kts 180°
2026-05-06 14:29 41.00188 140.39331 24051 ft 435 kts 180°
2026-05-06 14:29 40.97166 140.39649 24032 ft 435 kts 180°
2026-05-06 14:29 40.94149 140.39968 24038 ft 435 kts 180°
2026-05-06 14:30 40.91129 140.40287 24046 ft 435 kts 180°
2026-05-06 14:30 40.88105 140.40606 24046 ft 435 kts 180°
2026-05-06 14:30 40.85086 140.40926 24052 ft 435 kts 180°
2026-05-06 14:30 40.82064 140.41243 24053 ft 435 kts 180°
2026-05-06 14:31 40.79043 140.41557 24054 ft 435 kts 180°
2026-05-06 14:31 40.76026 140.41872 24048 ft 435 kts 180°
2026-05-06 14:31 40.72996 140.42187 24049 ft 435 kts 180°
2026-05-06 14:31 40.69975 140.42500 24053 ft 435 kts 180°
2026-05-06 14:32 40.66951 140.42813 24058 ft 436 kts 180°
2026-05-06 14:32 40.63928 140.43125 24060 ft 436 kts 180°
2026-05-06 14:32 40.60938 140.43433 24065 ft 436 kts 180°
2026-05-06 14:32 40.57916 140.43745 24058 ft 436 kts 180°
2026-05-06 14:33 40.54886 140.44058 24066 ft 436 kts 180°
2026-05-06 14:33 40.51856 140.44377 24072 ft 437 kts 180°
2026-05-06 14:33 40.48823 140.44696 24075 ft 437 kts 180°
2026-05-06 14:33 40.45788 140.45011 24075 ft 437 kts 180°
2026-05-06 14:34 40.42757 140.45321 24074 ft 437 kts 180°
2026-05-06 14:34 40.39730 140.45801 24081 ft 441 kts 173°
2026-05-06 14:34 40.36733 140.46682 24081 ft 442 kts 171°
2026-05-06 14:34 40.33731 140.47580 24088 ft 442 kts 171°
2026-05-06 14:35 40.30730 140.48477 24088 ft 442 kts 171°
2026-05-06 14:35 40.27728 140.49369 24089 ft 442 kts 171°
2026-05-06 14:35 40.24728 140.50252 24091 ft 442 kts 172°
2026-05-06 14:35 40.21727 140.51131 24097 ft 442 kts 172°
2026-05-06 14:36 40.18726 140.52009 24096 ft 442 kts 171°
2026-05-06 14:36 40.15724 140.52888 24086 ft 442 kts 171°
2026-05-06 14:36 40.12721 140.53769 24085 ft 443 kts 171°
2026-05-06 14:36 40.09748 140.54644 24092 ft 443 kts 171°
2026-05-06 14:37 40.06741 140.55530 24089 ft 443 kts 171°
2026-05-06 14:37 40.03732 140.56420 24089 ft 443 kts 171°
2026-05-06 14:37 40.00726 140.57307 24084 ft 443 kts 171°
2026-05-06 14:37 39.97718 140.58189 24085 ft 443 kts 171°
2026-05-06 14:38 39.94703 140.59064 24090 ft 444 kts 171°
2026-05-06 14:38 39.91685 140.59939 24093 ft 445 kts 171°
2026-05-06 14:38 39.88665 140.60820 24094 ft 445 kts 171°
2026-05-06 14:38 39.85641 140.61707 24081 ft 445 kts 171°
2026-05-06 14:39 39.82611 140.62592 24085 ft 445 kts 171°
2026-05-06 14:39 39.79584 140.63475 24090 ft 446 kts 171°
2026-05-06 14:39 39.76556 140.64360 24092 ft 446 kts 171°
2026-05-06 14:39 39.73523 140.65243 24096 ft 446 kts 171°
2026-05-06 14:40 39.70495 140.66121 24098 ft 446 kts 171°
2026-05-06 14:40 39.67462 140.66999 24101 ft 446 kts 171°
2026-05-06 14:40 39.64421 140.67881 24099 ft 447 kts 171°
2026-05-06 14:40 39.61389 140.68764 24099 ft 447 kts 171°
2026-05-06 14:41 39.58351 140.69648 24096 ft 447 kts 171°
2026-05-06 14:41 39.55313 140.70527 24093 ft 448 kts 171°
2026-05-06 14:41 39.52268 140.71403 24096 ft 448 kts 171°
2026-05-06 14:41 39.49220 140.72279 24096 ft 449 kts 171°
2026-05-06 14:42 39.46209 140.73147 24097 ft 449 kts 171°
2026-05-06 14:42 39.43160 140.74026 24102 ft 449 kts 171°
2026-05-06 14:42 39.40106 140.74905 24105 ft 450 kts 171°
2026-05-06 14:42 39.37048 140.75785 24109 ft 450 kts 171°
2026-05-06 14:43 39.33990 140.76666 24110 ft 450 kts 171°
2026-05-06 14:43 39.30932 140.77546 24112 ft 450 kts 171°
2026-05-06 14:43 39.27873 140.78425 24103 ft 451 kts 171°
2026-05-06 14:43 39.24811 140.79305 24094 ft 451 kts 171°
2026-05-06 14:44 39.21744 140.80187 24097 ft 451 kts 171°
2026-05-06 14:44 39.18682 140.81064 24099 ft 451 kts 171°
2026-05-06 14:44 39.15621 140.81940 24040 ft 449 kts 171°
2026-05-06 14:45 39.10568 140.83383 22895 ft 444 kts 171°
2026-05-06 14:45 39.07575 140.84240 22324 ft 438 kts 171°
2026-05-06 14:45 39.04620 140.85084 21746 ft 432 kts 171°
2026-05-06 14:45 39.01699 140.85913 21185 ft 427 kts 171°
2026-05-06 14:46 38.98813 140.86729 20639 ft 422 kts 171°
2026-05-06 14:46 38.95963 140.87534 20116 ft 418 kts 171°
2026-05-06 14:46 38.93130 140.88336 19599 ft 414 kts 171°
2026-05-06 14:46 38.90331 140.89133 19109 ft 410 kts 171°
2026-05-06 14:47 38.87556 140.89926 18606 ft 408 kts 171°
2026-05-06 14:47 38.84795 140.90712 18051 ft 405 kts 171°
2026-05-06 14:47 38.82051 140.91491 17533 ft 401 kts 171°
2026-05-06 14:47 38.79340 140.92259 17019 ft 396 kts 171°
2026-05-06 14:48 38.76664 140.93018 16482 ft 392 kts 171°
2026-05-06 14:48 38.74009 140.93768 15990 ft 388 kts 171°
2026-05-06 14:48 38.71389 140.94504 15455 ft 384 kts 171°
2026-05-06 14:48 38.68788 140.95234 14931 ft 380 kts 171°
2026-05-06 14:49 38.66209 140.95960 14396 ft 377 kts 171°
2026-05-06 14:49 38.63656 140.96679 13857 ft 374 kts 171°
2026-05-06 14:49 38.61126 140.97389 13225 ft 372 kts 171°
2026-05-06 14:49 38.58631 140.98089 12666 ft 368 kts 171°
2026-05-06 14:50 38.56135 140.98638 12139 ft 360 kts 178°
2026-05-06 14:50 38.53657 140.98589 11611 ft 353 kts 189°
2026-05-06 14:50 38.51233 140.98195 11083 ft 349 kts 189°
2026-05-06 14:50 38.48843 140.97801 10749 ft 340 kts 189°
2026-05-06 14:51 38.46548 140.97423 10620 ft 325 kts 189°
2026-05-06 14:51 38.44349 140.97066 10507 ft 312 kts 189°
2026-05-06 14:51 38.42237 140.96728 10395 ft 300 kts 189°
2026-05-06 14:51 38.40208 140.96402 10234 ft 290 kts 189°
2026-05-06 14:52 38.38228 140.96082 10100 ft 284 kts 189°
2026-05-06 14:52 38.36273 140.95766 10012 ft 285 kts 189°
2026-05-06 14:52 38.34282 140.95444 9549 ft 290 kts 189°
2026-05-06 14:52 38.32293 140.95124 9181 ft 287 kts 189°
2026-05-06 14:53 38.30304 140.94803 8781 ft 286 kts 189°
2026-05-06 14:53 38.28344 140.94486 8439 ft 284 kts 190°
2026-05-06 14:53 38.26387 140.94166 8062 ft 283 kts 190°
2026-05-06 14:53 38.24466 140.93856 7676 ft 280 kts 190°
2026-05-06 14:54 38.22550 140.93548 6953 ft 277 kts 190°
2026-05-06 14:54 38.20652 140.93241 6311 ft 272 kts 190°
2026-05-06 14:54 38.18786 140.92941 5832 ft 270 kts 189°
2026-05-06 14:54 38.16923 140.92681 5371 ft 267 kts 181°
2026-05-06 14:55 38.15128 140.93166 4943 ft 266 kts 154°
2026-05-06 14:55 38.13698 140.94658 4496 ft 272 kts 127°
2026-05-06 14:55 38.12972 140.96852 4173 ft 272 kts 103°
2026-05-06 14:55 38.12594 140.99198 3893 ft 267 kts 104°
2026-05-06 14:56 38.12181 141.01451 3764 ft 257 kts 106°
2026-05-06 14:56 38.11766 141.03608 3644 ft 246 kts 106°
2026-05-06 14:56 38.11370 141.05643 3537 ft 235 kts 106°
2026-05-06 14:56 38.10985 141.07622 3432 ft 229 kts 106°
2026-05-06 14:57 38.10720 141.09609 3331 ft 229 kts 89°
2026-05-06 14:57 38.11253 141.11460 3142 ft 225 kts 52°
2026-05-06 14:57 38.12525 141.12561 3024 ft 225 kts 16°
2026-05-06 14:57 38.14069 141.12572 2788 ft 222 kts 339°
2026-05-06 14:58 38.15306 141.11486 2697 ft 218 kts 304°
2026-05-06 14:58 38.15854 141.09759 2530 ft 209 kts 270°
2026-05-06 14:58 38.15742 141.07965 2316 ft 198 kts 260°
2026-05-06 14:58 38.15565 141.06307 2049 ft 180 kts 260°
2026-05-06 14:59 38.15412 141.04832 1852 ft 156 kts 261°
2026-05-06 14:59 38.15277 141.03518 1624 ft 145 kts 261°
2026-05-06 14:59 38.15148 141.02265 1434 ft 140 kts 261°
2026-05-06 14:59 38.15022 141.01035 1256 ft 140 kts 261°
2026-05-06 15:00 38.14897 140.99811 1055 ft 139 kts 261°
2026-05-06 15:00 38.14772 140.98594 883 ft 138 kts 261°
2026-05-06 15:00 38.14645 140.97381 715 ft 138 kts 259°
2026-05-06 15:00 38.14534 140.96170 523 ft 138 kts 261°
2026-05-06 15:01 38.14400 140.94950 268 ft 140 kts 259°
2026-05-06 15:01 38.14282 140.93727 123 ft 138 kts 261°
2026-05-06 15:01 38.14151 140.92538 34 ft 125 kts 260°
2026-05-06 15:01 38.14060 140.91645 11 ft 64 kts 262°
2026-05-06 15:02 38.14010 140.91406 11 ft 10 kts 186°
2026-05-06 15:02 38.13950 140.91460 10 ft 12 kts 120°
2026-05-06 15:02 38.13911 140.91557 12 ft 12 kts 116°
2026-05-06 15:02 38.13874 140.91652 12 ft 12 kts 116°
2026-05-06 15:03 38.13834 140.91746 14 ft 13 kts 119°
2026-05-06 15:03 38.13790 140.91849 13 ft 8 kts 118°
2026-05-06 15:03 38.13789 140.91851 13 ft 0 kts 118°
2026-05-06 15:04 38.13784 140.91863 14 ft 3 kts 118°
2026-05-06 15:04 38.13773 140.91890 13 ft 4 kts 116°
2026-05-06 15:04 38.13757 140.91931 13 ft 6 kts 116°
2026-05-06 15:04 38.13744 140.91984 13 ft 7 kts 83°
2026-05-06 15:05 38.13782 140.92022 12 ft 8 kts 18°
2026-05-06 15:05 38.13842 140.92037 13 ft 9 kts 10°
2026-05-06 15:05 38.13898 140.92046 14 ft 7 kts
2026-05-06 15:05 38.13935 140.92078 15 ft 7 kts 63°
2026-05-06 15:06 38.13944 140.92143 13 ft 8 kts 82°
2026-05-06 15:06 38.13953 140.92218 14 ft 9 kts 82°
2026-05-06 15:06 38.13962 140.92305 14 ft 11 kts 83°
2026-05-06 15:06 38.13972 140.92403 16 ft 12 kts 82°
2026-05-06 15:07 38.13984 140.92513 14 ft 13 kts 82°
2026-05-06 15:07 38.13995 140.92634 14 ft 14 kts 83°
2026-05-06 15:07 38.14009 140.92765 14 ft 16 kts 82°
2026-05-06 15:07 38.14018 140.92851 15 ft 7 kts 82°
2026-05-06 15:08 38.14013 140.92913 15 ft 6 kts 133°
2026-05-06 15:08 38.13972 140.92915 15 ft 7 kts 179°
2026-05-06 15:08 38.13918 140.92922 16 ft 9 kts 173°
2026-05-06 15:08 38.13893 140.92926 16 ft 0 kts 172°
2026-05-06 15:09 38.13890 140.92927 16 ft 0 kts 172°